1508562000.45,16732,14.25,73814.0,2.01,-9.61,-10.27,0,*45
1508562001.68,16733,14.19,73804.5,2.03,-9.61,-10.15,0,*47
1508562002.91,16734,14.25,73808.5,2.01,-9.67,-10.19,0,*48
1508562004.13,16735,14.19,73820.3,2.01,-9.67,-10.15,0,*45
1508562005.37,16736,14.25,73806.5,2.01,-9.53,-10.05,0,*40
1508562006.62,16737,14.19,73802.3,2.01,-9.53,-10.15,0,*40
1508562007.87,16738,14.25,73808.5,2.01,-9.61,-10.15,0,*4E
1508562009.12,16739,14.19,73808.5,2.01,-9.53,-10.19,0,*42
1508562010.37,16740,14.19,73812.5,2.01,-9.53,-10.19,0,*4C
1508562011.62,16741,14.25,73816.0,2.01,-9.61,-10.15,0,*40
1508562012.85,16742,14.25,73822.8,2.01,-9.67,-10.19,0,*49
1508562014.09,16743,14.25,73818.5,2.01,-9.61,-10.19,0,*4E
1508562015.34,16744,14.25,73822.0,2.01,-9.53,-10.15,0,*44
1508562016.59,16745,14.25,73824.0,2.01,-9.53,-10.05,0,*44
1508562017.83,16746,14.25,73826.0,2.01,-9.49,-10.05,0,*4C
1508562019.08,16747,14.19,73826.0,2.01,-9.37,-9.93,0,*73
1508562020.3,16748,14.25,73826.5,1.99,-9.37,-9.79,0,*7A
1508562021.52,16749,14.25,73830.3,1.99,-9.37,-9.93,0,*7F
1508562022.74,16750,14.25,73830.5,2.01,-9.23,-9.67,0,*7B
1508562024.01,16751,14.25,73828.3,2.01,-9.11,-9.61,0,*7D
1508562025.23,16752,14.25,73832.3,2.03,-9.05,-9.57,0,*7C
1508562026.45,16753,14.19,73832.0,2.03,-9.01,-9.49,0,*76
1508562027.68,16754,14.25,73832.8,2.03,-8.93,-9.49,0,*7B
1508562028.92,16755,14.25,73824.5,2.03,-9.15,-9.57,0,*7A
1508562030.12,16756,14.19,73822.3,2.03,-9.31,-9.89,0,*7C
1508562031.34,16757,14.25,73826.0,2.03,-9.41,-9.97,0,*75
1508562032.57,16758,14.25,73824.5,2.03,-9.49,-10.01,0,*45
1508562033.78,16759,14.19,73826.5,2.03,-9.45,-9.97,0,*7F
1508562035.03,16760,14.19,73816.8,2.05,-9.45,-9.97,0,*73
1508562036.25,16761,14.25,73818.5,2.03,-9.45,-9.97,0,*74
1508562037.47,16762,14.25,73820.8,2.03,-9.45,-10.01,0,*40
1508562038.71,16763,14.25,73820.3,2.03,-9.41,-10.01,0,*45
1508562039.95,16764,14.25,73820.3,2.05,-9.49,-10.09,0,*44
1508562041.17,16765,14.19,73816.3,2.03,-9.57,-10.09,0,*4C
1508562042.39,16766,14.25,73820.5,2.03,-9.49,-10.09,0,*40
1508562043.61,16767,14.25,73820.0,2.03,-9.49,-10.09,0,*41
1508562044.83,16768,14.19,73816.0,2.03,-9.49,-10.09,0,*4E
1508562046.05,16769,14.19,73816.3,2.03,-9.49,-10.09,0,*4F
1508562047.28,16770,14.25,73822.3,2.03,-9.57,-10.15,0,*45
1508562048.49,16771,14.19,73824.3,2.03,-9.57,-10.09,0,*49
1508562049.71,16772,14.25,73820.5,2.03,-9.49,-10.09,0,*45
1508562050.94,16773,14.19,73822.0,2.03,-9.45,-10.09,0,*48
1508562052.19,16774,14.19,73820.0,2.01,-9.61,-10.19,0,*4A
1508562053.41,16775,14.25,73826.5,2.01,-9.67,-10.27,0,*40
1508562054.63,16776,14.19,73828.0,2.03,-9.61,-10.23,0,*43
1508562055.85,16777,14.19,73824.0,2.03,-9.57,-10.15,0,*42
1508562057.07,16778,14.19,73824.0,2.03,-9.49,-10.09,0,*4F
1508562058.3,16779,14.25,73826.0,2.03,-9.45,-10.09,0,*42
1508562059.53,16780,14.25,73826.0,2.03,-9.45,-10.01,0,*4C
1508562060.75,16781,14.25,73824.3,2.03,-9.45,-10.09,0,*45
1508562061.97,16782,14.19,73822.8,2.03,-9.57,-10.15,0,*48
1508562063.22,16783,14.19,73822.3,2.01,-9.61,-10.27,0,*4F
1508562064.45,16784,14.19,73820.5,2.01,-9.67,-10.27,0,*4E
1508562065.67,16785,14.19,73818.8,2.03,-9.61,-10.23,0,*4F
1508562066.92,16786,14.19,73822.3,2.01,-9.61,-10.19,0,*47
1508562068.15,16787,14.25,73824.0,2.03,-9.45,-10.01,0,*4B
1508562069.4,16788,14.19,73822.5,2.01,-9.49,-10.01,0,*4A
1508562070.62,16789,14.25,73822.8,2.03,-9.41,-9.97,0,*76
1508562071.85,16790,14.19,73822.5,2.03,-9.49,-10.01,0,*41
1508562073.1,16791,14.19,73822.8,2.01,-9.49,-10.15,0,*47
1508562074.32,16792,14.25,73822.8,2.03,-9.57,-10.15,0,*49
1508562075.55,16793,14.19,73816.5,2.03,-9.49,-10.15,0,*47
1508562076.76,16794,14.19,73818.5,2.03,-9.57,-10.23,0,*4A
1508562077.99,16795,14.25,73824.3,2.03,-9.61,-10.15,0,*4B
1508562079.19,16796,14.25,73824.3,2.03,-9.71,-10.23,0,*4C
1508562080.41,16797,14.25,73822.8,2.03,-9.57,-10.15,0,*4C
1508562081.66,16798,14.19,73816.5,2.01,-9.61,-10.15,0,*44
1508562082.88,16799,14.25,73816.0,2.03,-9.57,-10.23,0,*47
1508562084.12,16800,14.19,73818.8,2.01,-9.61,-10.27,0,*4B
1508562085.34,16801,14.19,73818.8,2.03,-9.57,-10.23,0,*49
1508562086.57,16802,14.25,73822.8,2.03,-9.61,-10.15,0,*4A
1508562087.79,16803,14.25,73826.3,2.03,-9.61,-10.23,0,*4E
1508562089.0,16804,14.19,73818.0,2.03,-9.61,-10.23,0,*49
1508562090.23,16805,14.25,73818.8,2.03,-9.57,-10.15,0,*48
1508562091.45,16806,14.19,73808.8,2.03,-9.61,-10.23,0,*4B
1508562092.65,16807,14.25,73818.3,2.03,-9.71,-10.23,0,*4B
1508562093.85,16808,14.25,73822.5,2.03,-9.75,-10.27,0,*44
1508562095.06,16809,14.25,73822.0,2.03,-9.71,-10.27,0,*41
1508562096.27,16810,14.25,73822.0,2.03,-9.71,-10.27,0,*49
1508562097.48,16811,14.19,73820.0,2.03,-9.71,-10.27,0,*48
1508562098.69,16812,14.25,73822.8,2.03,-9.71,-10.27,0,*4B
1508562099.91,16813,14.25,73822.5,2.01,-9.75,-10.31,0,*4B
1508562101.12,16814,14.25,73820.3,2.03,-9.75,-10.27,0,*49
1508562102.35,16815,14.25,73820.8,2.01,-9.75,-10.27,0,*4A
1508562103.56,16816,14.25,73822.8,2.03,-9.57,-10.09,0,*47
1508562104.78,16817,14.25,73822.5,2.03,-9.57,-10.15,0,*4B
1508562106.01,16818,14.19,73816.0,2.03,-9.57,-10.15,0,*44
1508562107.23,16819,14.25,73822.3,2.03,-9.61,-10.15,0,*40
1508562108.45,16820,14.25,73824.3,2.03,-9.57,-10.23,0,*4A
1508562109.7,16821,14.25,73822.3,2.01,-9.53,-10.19,0,*44
1508562110.92,16822,14.25,73820.0,2.03,-9.61,-10.15,0,*48
1508562112.15,16823,14.25,73826.5,2.03,-9.49,-10.15,0,*43
1508562113.38,16824,14.19,73820.3,2.03,-9.49,-10.15,0,*44
1508562114.6,16825,14.25,73824.0,2.03,-9.57,-10.15,0,*4A
1508562115.83,16826,14.25,73820.5,2.03,-9.61,-10.15,0,*4C
1508562117.06,16827,14.25,73818.5,2.03,-9.45,-10.15,0,*4B
1508562118.29,16828,14.25,73822.5,2.03,-9.45,-10.15,0,*44
1508562119.52,16829,14.19,73818.3,2.03,-9.49,-10.15,0,*49
1508562120.75,16830,14.25,73818.8,2.03,-9.45,-10.01,0,*48
1508562121.98,16831,14.19,73814.8,2.03,-9.45,-10.15,0,*4C
1508562123.2,16832,14.19,73816.8,2.03,-9.49,-10.15,0,*43
1508562124.42,16833,14.19,73814.5,2.03,-9.57,-10.23,0,*48
1508562125.66,16834,14.19,73814.0,2.05,-9.57,-10.23,0,*49
1508562126.9,16835,14.25,73816.8,2.05,-9.61,-10.23,0,*4D
1508562128.14,16836,14.25,73822.8,2.05,-9.71,-10.27,0,*4B
1508562129.37,16837,14.25,73824.3,2.05,-9.75,-10.27,0,*4E
1508562130.57,16838,14.19,73822.0,2.03,-9.75,-10.31,0,*40
1508562131.78,16839,14.25,73824.0,2.03,-9.71,-10.27,0,*42
1508562132.99,16840,14.25,73824.5,2.03,-9.71,-10.27,0,*4C
1508562134.2,16841,14.25,73826.0,2.03,-9.57,-10.23,0,*4D
1508562135.42,16842,14.25,73822.5,2.03,-9.61,-10.23,0,*4B
1508562136.65,16843,14.25,73820.3,2.03,-9.61,-10.27,0,*4E
1508562137.87,16844,14.19,73816.3,2.01,-9.79,-10.31,0,*45
1508562139.08,16845,14.25,73818.5,2.03,-9.75,-10.31,0,*4A
1508562140.32,16846,14.25,73820.3,2.03,-9.83,-10.41,0,*47
1508562141.54,16847,14.19,73826.0,2.01,-9.89,-10.45,0,*4A
1508562142.76,16848,14.25,73820.3,2.03,-9.61,-10.27,0,*45
1508562143.99,16849,14.19,73824.8,2.03,-9.61,-10.27,0,*44
1508562145.21,16850,14.19,73820.8,2.03,-9.61,-10.27,0,*4C
1508562146.46,16851,14.19,73820.5,2.05,-9.57,-10.15,0,*4F
1508562147.69,16852,14.25,73818.5,2.03,-9.49,-10.15,0,*45
1508562148.91,16853,14.19,73820.0,2.03,-9.45,-10.09,0,*45
1508562150.14,16854,14.25,73814.8,2.03,-9.45,-10.01,0,*4A
1508562151.36,16855,14.25,73810.3,2.03,-9.57,-10.15,0,*4D
1508562152.59,16856,14.25,73818.3,2.03,-9.61,-10.15,0,*4B
1508562153.83,16857,14.25,73820.0,2.05,-9.61,-10.23,0,*49
1508562155.06,16858,14.25,73828.3,2.05,-9.71,-10.27,0,*43
1508562156.3,16859,14.25,73830.0,2.05,-9.71,-10.27,0,*42
1508562157.53,16860,14.25,73838.3,2.05,-9.71,-10.27,0,*48
1508562158.76,16861,14.25,73836.8,2.05,-9.71,-10.27,0,*49
1508562160.01,16862,14.19,73838.8,2.05,-9.61,-10.23,0,*4F
1508562161.25,16863,14.19,73838.3,2.05,-9.57,-10.23,0,*4B
1508562162.49,16864,14.25,73840.5,2.05,-9.57,-10.23,0,*4C
1508562163.73,16865,14.19,73838.3,2.05,-9.61,-10.23,0,*48
1508562164.97,16866,14.25,73832.8,2.05,-9.61,-10.23,0,*4B
1508562166.2,16867,14.19,73826.5,2.05,-9.75,-10.27,0,*4B
1508562167.44,16868,14.25,73824.3,2.05,-9.71,-10.27,0,*40
1508562168.68,16869,14.25,73828.0,2.05,-9.61,-10.27,0,*40
1508562169.92,16870,14.19,73824.8,2.05,-9.71,-10.27,0,*49
1508562171.15,16871,14.19,73826.0,2.05,-9.75,-10.27,0,*4C
1508562172.38,16872,14.19,73830.3,2.05,-9.75,-10.27,0,*4F
1508562173.61,16873,14.25,73824.5,2.05,-9.75,-10.27,0,*4E
1508562174.88,16874,14.25,73828.3,2.05,-9.83,-10.41,0,*40
1508562176.11,16875,14.25,73824.5,2.05,-9.75,-10.31,0,*4F
1508562177.31,16876,14.25,73822.0,2.03,-9.71,-10.31,0,*4E
1508562178.52,16877,14.25,73824.8,2.03,-9.71,-10.27,0,*48
1508562179.74,16878,14.25,73826.0,2.03,-9.61,-10.27,0,*46
1508562180.99,16879,14.19,73826.5,2.05,-9.61,-10.27,0,*41
1508562182.24,16880,14.25,73822.3,2.05,-9.61,-10.23,0,*43
1508562183.47,16881,14.25,73814.0,2.05,-9.71,-10.27,0,*47
1508562184.7,16882,14.19,73820.0,2.05,-9.71,-10.27,0,*44
1508562185.94,16883,14.19,73806.5,2.05,-9.71,-10.27,0,*45
1508562187.18,16884,14.19,73812.5,2.05,-9.83,-10.27,0,*4F
1508562188.41,16885,14.19,73826.0,2.05,-9.75,-10.27,0,*47
1508562189.65,16886,14.19,73826.8,2.05,-9.71,-10.27,0,*40
1508562190.87,16887,14.19,73824.5,2.05,-9.75,-10.31,0,*42
1508562192.1,16888,14.25,73822.8,2.05,-9.75,-10.27,0,*4A
1508562193.33,16889,14.25,73822.3,2.05,-9.71,-10.31,0,*48
1508562194.56,16890,14.25,73816.5,2.05,-9.75,-10.27,0,*43
1508562195.79,16891,14.25,73818.0,2.05,-9.75,-10.31,0,*45
1508562197.02,16892,14.19,73812.8,2.05,-9.75,-10.31,0,*46
1508562198.27,16893,14.19,73808.0,2.05,-9.71,-10.41,0,*44
1508562199.53,16894,14.25,73808.8,2.05,-9.75,-10.41,0,*47
1508562200.74,16895,14.25,73800.8,2.05,-9.89,-10.45,0,*41
1508562201.96,16896,14.19,73810.3,2.05,-9.97,-10.53,0,*4A
1508562203.18,16897,14.25,73810.3,2.05,-9.97,-10.53,0,*4B
1508562204.4,16898,14.19,73804.5,2.05,-9.97,-10.45,0,*43
1508562205.59,16899,14.25,73814.8,2.07,-9.97,-10.45,0,*40
1508562206.81,16900,14.19,73810.0,2.05,-10.01,-10.53,0,*73
1508562208.02,16901,14.19,73808.8,2.03,-10.01,-10.53,0,*74
1508562209.22,16902,14.19,73810.0,2.03,-10.01,-10.53,0,*77
1508562210.42,16903,14.25,73828.0,2.03,-10.01,-10.57,0,*72
1508562211.62,16904,14.25,73830.3,2.03,-10.01,-10.45,0,*76
1508562212.81,16905,14.19,73824.8,2.03,-9.97,-10.45,0,*40
1508562214.03,16906,14.19,73824.8,2.01,-9.93,-10.49,0,*49
1508562215.25,16907,14.25,73830.5,2.03,-9.83,-10.45,0,*47
1508562216.47,16908,14.19,73828.5,2.01,-9.89,-10.45,0,*40
1508562217.69,16909,14.19,73824.3,2.03,-9.89,-10.41,0,*47
1508562218.91,16910,14.19,73828.0,2.03,-9.89,-10.41,0,*4F
1508562220.13,16911,14.19,73826.3,2.03,-9.89,-10.41,0,*4E
1508562221.32,16912,14.19,73828.0,2.03,-9.89,-10.31,0,*4A
1508562222.54,16913,14.19,73816.8,2.03,-9.83,-10.31,0,*41
1508562223.79,16914,14.19,73822.3,2.03,-9.83,-10.41,0,*41
1508562225.0,16915,14.19,73830.3,2.03,-9.71,-10.31,0,*4A
1508562226.21,16916,14.19,73818.0,2.03,-9.71,-10.27,0,*4E
1508562227.43,16917,14.25,73818.3,2.01,-9.79,-10.31,0,*42
1508562228.66,16918,14.25,73824.0,2.01,-9.67,-10.31,0,*42
1508562229.86,16919,14.25,73824.8,2.03,-9.71,-10.27,0,*41
1508562231.07,16920,14.19,73822.3,2.03,-9.75,-10.31,0,*48
1508562232.29,16921,14.19,73824.0,2.01,-9.75,-10.31,0,*4B
1508562233.52,16922,14.19,73824.5,2.03,-9.61,-10.27,0,*48
1508562234.74,16923,14.19,73822.0,2.01,-9.75,-10.31,0,*49
1508562235.95,16924,14.19,73826.0,2.03,-9.71,-10.31,0,*48
1508562237.18,16925,14.19,73828.0,2.01,-9.79,-10.31,0,*43
1508562238.4,16926,14.19,73830.5,2.01,-9.79,-10.31,0,*40
1508562239.61,16927,14.25,73830.0,2.03,-9.75,-10.27,0,*48
1508562240.81,16928,14.25,73824.0,2.03,-9.75,-10.27,0,*47
1508562242.04,16929,14.19,73826.0,2.01,-9.79,-10.35,0,*4B
1508562243.25,16930,14.19,73824.8,2.03,-9.75,-10.27,0,*4E
1508562244.46,16931,14.19,73824.3,2.03,-9.71,-10.27,0,*4B
1508562245.66,16932,14.19,73826.5,2.03,-9.75,-10.31,0,*4B
1508562246.86,16933,14.19,73828.5,2.03,-9.75,-10.31,0,*4A
1508562248.07,16934,14.19,73812.5,2.03,-9.75,-10.31,0,*4D
1508562249.27,16935,14.19,73812.8,2.03,-9.71,-10.27,0,*4F
1508562250.48,16936,14.19,73822.0,2.03,-9.75,-10.31,0,*4F
1508562251.75,16937,14.19,73824.3,2.05,-9.83,-10.41,0,*46
1508562252.98,16938,14.19,73818.5,2.05,-9.75,-10.31,0,*47
1508562254.22,16939,14.25,73816.3,2.05,-9.83,-10.45,0,*4C
1508562255.45,16940,14.19,73812.5,2.03,-9.75,-10.41,0,*49
1508562256.67,16941,14.19,73824.3,2.03,-9.89,-10.41,0,*4B
1508562257.9,16942,14.19,73822.3,2.03,-9.75,-10.41,0,*4B
1508562259.15,16943,14.19,73820.8,2.03,-9.83,-10.41,0,*43
1508562260.36,16944,14.19,73834.5,2.03,-9.83,-10.45,0,*40
1508562261.57,16945,14.25,73834.3,2.03,-9.71,-10.31,0,*4F
1508562262.78,16946,14.19,73834.3,2.03,-9.75,-10.31,0,*48
1508562263.98,16947,14.19,73834.5,2.03,-9.75,-10.31,0,*49
1508562265.18,16948,14.25,73828.5,2.03,-9.75,-10.31,0,*46
1508562266.38,16949,14.19,73826.0,2.03,-9.75,-10.31,0,*47
1508562267.59,16950,14.19,73826.0,2.03,-9.75,-10.31,0,*4F
1508562268.79,16951,14.19,73826.3,2.03,-9.75,-10.45,0,*4D
1508562270.0,16952,14.19,73826.0,2.03,-9.83,-10.45,0,*47
1508562271.2,16953,14.25,73826.3,2.03,-9.89,-10.57,0,*4F
1508562272.44,16954,14.19,73824.5,2.03,-9.83,-10.41,0,*45
1508562273.69,16955,14.25,73824.5,2.03,-9.83,-10.41,0,*44
1508562274.92,16956,14.19,73822.5,2.01,-9.75,-10.45,0,*48
1508562276.16,16957,14.19,73826.3,2.03,-9.83,-10.41,0,*46
1508562277.37,16958,14.19,73828.0,2.03,-9.75,-10.31,0,*47
1508562278.57,16959,14.19,73826.5,2.03,-9.75,-10.31,0,*46
1508562279.8,16960,14.19,73828.0,2.03,-9.75,-10.41,0,*4B
1508562281.01,16961,14.19,73830.8,2.03,-9.71,-10.27,0,*4E
1508562282.21,16962,14.19,73830.0,2.03,-9.75,-10.31,0,*4E
1508562283.43,16963,14.25,73828.8,2.03,-9.83,-10.31,0,*46
1508562284.64,16964,14.25,73834.8,2.03,-9.75,-10.31,0,*48
1508562285.84,16965,14.19,73830.5,2.03,-9.71,-10.31,0,*4D
1508562287.04,16966,14.25,73834.8,2.03,-9.75,-10.31,0,*4A
1508562288.26,16967,14.25,73838.3,2.03,-9.89,-10.41,0,*4F
1508562289.48,16968,14.19,73832.0,2.05,-9.89,-10.45,0,*42
1508562290.72,16969,14.19,73828.8,2.05,-9.83,-10.45,0,*49
1508562291.95,16970,14.19,73834.0,2.03,-9.97,-10.41,0,*46
1508562293.19,16971,14.19,73832.8,2.05,-9.83,-10.45,0,*40
1508562294.44,16972,14.19,73832.5,2.05,-9.89,-10.41,0,*4D
1508562295.68,16973,14.19,73834.0,2.05,-9.83,-10.45,0,*42
1508562296.92,16974,14.25,73836.0,2.05,-9.89,-10.41,0,*4B
1508562298.2,16975,14.25,73828.5,2.05,-9.83,-10.41,0,*40
1508562299.45,16976,14.25,73830.5,2.05,-9.75,-10.41,0,*4A
1508562300.72,16977,14.25,73828.3,2.05,-9.83,-10.41,0,*42
1508562301.99,16978,14.25,73828.5,2.05,-9.83,-10.41,0,*4D
1508562303.22,16979,14.19,73830.5,2.05,-9.75,-10.27,0,*45
1508562304.47,16980,14.25,73826.3,2.05,-9.83,-10.31,0,*4D
1508562305.69,16981,14.25,73826.5,2.05,-9.75,-10.31,0,*45
1508562306.92,16982,14.19,73828.8,2.05,-9.75,-10.31,0,*46
1508562308.12,16983,14.19,73830.0,2.07,-9.67,-10.27,0,*41
1508562309.35,16984,14.25,73834.0,2.05,-9.75,-10.31,0,*40
1508562310.6,16985,14.19,73830.5,2.05,-9.75,-10.41,0,*46
1508562311.86,16986,14.19,73830.3,2.05,-9.71,-10.41,0,*41
1508562313.11,16987,14.19,73830.8,2.05,-9.75,-10.41,0,*44
1508562314.35,16988,14.25,73832.8,2.05,-9.83,-10.45,0,*46
1508562315.63,16989,14.19,73828.5,2.05,-9.83,-10.41,0,*43
1508562316.87,16990,14.25,73836.0,2.05,-9.89,-10.41,0,*41
1508562318.13,16991,14.19,73834.8,2.05,-9.71,-10.41,0,*47
1508562319.35,16992,14.19,73836.3,2.05,-9.75,-10.45,0,*44
1508562320.58,16993,14.19,73834.3,2.07,-9.71,-10.41,0,*47
1508562321.84,16994,14.19,73836.0,2.05,-9.75,-10.41,0,*46
1508562323.06,16995,14.19,73838.8,2.05,-9.75,-10.45,0,*43
1508562324.26,16996,14.19,73834.0,2.07,-9.71,-10.49,0,*4A
1508562325.47,16997,14.19,73828.0,2.07,-9.83,-10.53,0,*4D
1508562326.69,16998,14.19,73822.8,2.05,-9.97,-10.57,0,*41
1508562327.95,16999,14.25,73818.3,2.05,-10.01,-10.67,0,*74
1508562329.2,17000,14.19,73822.3,2.05,-10.01,-10.71,0,*7B
1508562330.42,17001,14.19,73822.5,2.07,-9.97,-10.67,0,*48
1508562331.67,17002,14.19,73810.5,2.05,-10.01,-10.67,0,*7E
1508562332.89,17003,14.19,73806.3,2.07,-10.05,-10.63,0,*7D
1508562334.14,17004,14.19,73788.5,2.05,-10.09,-10.67,0,*70
1508562335.39,17005,14.19,73796.3,2.05,-10.09,-10.71,0,*76
1508562336.61,17006,14.19,73800.0,2.07,-10.05,-10.63,0,*78
1508562337.86,17007,14.25,73808.5,2.05,-10.15,-10.71,0,*79
1508562339.12,17008,14.25,73810.8,2.05,-10.01,-10.67,0,*74
1508562340.37,17009,14.19,73796.3,2.05,-10.01,-10.67,0,*75
1508562341.62,17010,14.19,73804.3,2.05,-10.09,-10.71,0,*72
1508562342.86,17011,14.25,73808.8,2.05,-10.09,-10.71,0,*73
1508562344.08,17012,14.19,73806.3,2.05,-9.97,-10.57,0,*4B
1508562345.33,17013,14.19,73802.0,2.05,-9.97,-10.71,0,*4E
1508562346.55,17014,14.19,73798.8,2.05,-10.01,-10.57,0,*7A
1508562347.81,17015,14.19,73812.3,2.05,-10.01,-10.67,0,*78
1508562349.03,17016,14.19,73810.8,2.05,-9.97,-10.57,0,*4F
1508562350.25,17017,14.19,73810.3,2.05,-9.97,-10.57,0,*4E
1508562351.47,17018,14.19,73816.3,2.05,-9.97,-10.57,0,*41
1508562352.72,17019,14.25,73812.8,2.05,-10.01,-10.71,0,*73
1508562353.97,17020,14.19,73814.3,2.05,-10.01,-10.67,0,*7E
1508562355.23,17021,14.19,73816.5,2.05,-10.01,-10.67,0,*7F
1508562356.48,17022,14.19,73822.0,2.05,-10.01,-10.67,0,*7C
1508562357.73,17023,14.19,73816.8,2.01,-10.05,-10.75,0,*7E
1508562358.95,17024,14.19,73816.0,2.03,-10.01,-10.71,0,*7B
1508562360.19,17025,14.19,73822.5,2.03,-10.01,-10.67,0,*7D
1508562361.38,17026,14.19,73824.3,2.03,-9.97,-10.57,0,*4A
1508562362.58,17027,14.19,73830.0,2.03,-9.97,-10.57,0,*4B
1508562363.8,17028,14.19,73826.5,2.03,-10.01,-10.71,0,*77
1508562365.02,17029,14.19,73820.8,2.03,-10.09,-10.71,0,*7E
1508562366.25,17030,14.19,73820.0,2.03,-10.01,-10.67,0,*79
1508562367.48,17031,14.19,73816.0,2.03,-10.01,-10.71,0,*7F
1508562368.73,17032,14.19,73826.8,2.01,-10.01,-10.71,0,*7E
1508562369.96,17033,14.19,73818.0,2.03,-10.01,-10.67,0,*7A
1508562371.21,17034,14.19,73814.5,2.05,-10.01,-10.67,0,*7B
1508562372.44,17035,14.25,73824.0,2.03,-10.01,-10.67,0,*7C
1508562373.68,17036,14.19,73816.0,2.03,-10.01,-10.67,0,*7F
1508562374.9,17037,14.25,73826.3,2.03,-10.05,-10.75,0,*79
1508562376.1,17038,14.19,73824.5,2.03,-9.97,-10.57,0,*45
1508562377.29,17039,14.19,73826.8,2.03,-10.09,-10.57,0,*7B
1508562378.49,17040,14.19,73830.3,2.03,-10.01,-10.53,0,*79
1508562379.69,17041,14.25,73830.3,2.03,-9.89,-10.57,0,*44
1508562380.93,17042,14.25,73824.0,2.01,-10.01,-10.71,0,*79
1508562382.16,17043,14.19,73828.8,2.03,-10.01,-10.67,0,*7D
1508562383.4,17044,14.25,73828.5,2.03,-10.01,-10.67,0,*7A
1508562384.63,17045,14.19,73830.3,2.03,-10.01,-10.67,0,*7B
1508562385.85,17046,14.19,73834.0,2.03,-10.01,-10.71,0,*7F
1508562387.08,17047,14.19,73832.8,2.03,-10.01,-10.79,0,*76
1508562388.3,17048,14.19,73832.8,2.03,-10.01,-10.71,0,*71
1508562389.53,17049,14.25,73836.3,2.03,-10.01,-10.71,0,*70
1508562390.78,17050,14.19,73838.0,2.01,-10.05,-10.75,0,*7A
1508562392.03,17051,14.19,73834.3,2.01,-10.15,-10.75,0,*7A
1508562393.26,17052,14.19,73830.5,2.01,-10.19,-10.89,0,*76
1508562394.45,17053,14.19,73830.0,2.03,-10.09,-10.85,0,*78
1508562395.68,17054,14.19,73826.5,2.01,-10.15,-10.85,0,*70
1508562396.9,17055,14.19,73826.3,2.03,-10.09,-10.79,0,*7D
1508562398.13,17056,14.19,73820.0,2.03,-10.01,-10.75,0,*7A
1508562399.38,17057,14.19,73818.8,2.01,-10.05,-10.75,0,*7D
1508562400.59,17058,14.19,73822.3,2.01,-10.05,-10.85,0,*7D
1508562401.81,17059,14.19,73826.5,2.01,-10.05,-10.89,0,*70
1508562403.02,17060,14.25,73824.8,2.03,-10.19,-10.89,0,*75
1508562404.24,17061,14.19,73820.3,2.01,-10.15,-10.85,0,*76
1508562405.47,17062,14.19,73828.8,2.01,-10.15,-10.89,0,*79
1508562406.7,17063,14.19,73830.8,2.01,-10.19,-10.89,0,*74
1508562407.93,17064,14.19,73822.5,2.01,-10.19,-10.85,0,*7F
1508562409.16,17065,14.25,73824.8,2.01,-10.27,-10.97,0,*70
1508562410.37,17066,14.19,73816.3,1.99,-10.35,-10.97,0,*72
1508562411.57,17067,14.19,73812.8,1.99,-10.27,-10.97,0,*70
1508562412.78,17068,14.19,73818.8,1.99,-10.19,-11.01,0,*7C
1508562414.01,17069,14.19,73822.8,2.01,-10.27,-10.97,0,*7C
1508562415.23,17070,14.19,73820.0,2.01,-10.15,-10.85,0,*76
1508562416.46,17071,14.19,73820.8,2.01,-10.15,-10.89,0,*7B
1508562417.69,17072,14.19,73824.0,2.01,-10.15,-10.89,0,*78
1508562418.92,17073,14.19,73820.8,2.01,-10.27,-10.89,0,*78
1508562420.15,17074,14.19,73816.8,2.01,-10.15,-10.89,0,*7E
1508562421.37,17075,14.19,73816.0,2.01,-10.15,-10.85,0,*73
1508562422.57,17076,14.19,73816.5,1.99,-10.15,-10.89,0,*7E
1508562423.78,17077,14.19,73822.3,1.99,-10.15,-10.89,0,*7F
1508562424.99,17078,14.19,73826.3,2.01,-10.05,-10.85,0,*7F
1508562426.21,17079,14.19,73824.5,1.97,-10.09,-10.93,0,*79
1508562427.41,17080,14.19,73830.8,1.99,-10.15,-10.85,0,*7B
1508562428.61,17081,14.19,73838.0,1.99,-10.19,-10.89,0,*7A
1508562429.81,17082,14.19,73844.3,1.99,-10.15,-10.85,0,*79
1508562431.03,17083,14.19,73842.0,1.97,-10.23,-10.93,0,*74
1508562432.24,17084,14.19,73838.0,1.99,-10.19,-10.89,0,*7F
1508562433.44,17085,14.19,73832.5,1.99,-10.19,-10.89,0,*7E
1508562434.64,17086,14.19,73826.5,1.99,-10.15,-10.85,0,*7D
1508562435.86,17087,14.19,73828.3,1.97,-10.19,-10.89,0,*72
1508562437.06,17088,14.19,73824.3,1.99,-10.15,-10.85,0,*73
1508562438.27,17089,14.19,73826.3,1.99,-10.15,-10.89,0,*7E
1508562439.46,17090,14.19,73822.8,1.99,-10.15,-10.85,0,*7A
1508562440.69,17091,14.19,73824.8,1.97,-10.19,-10.89,0,*75
1508562441.89,17092,14.25,73826.5,1.99,-10.15,-10.89,0,*74
1508562443.12,17093,14.19,73826.5,1.97,-10.19,-10.89,0,*77
1508562444.35,17094,14.19,73824.0,1.99,-10.15,-10.75,0,*71
1508562445.56,17095,14.19,73824.0,1.99,-10.19,-10.89,0,*7F
1508562446.78,17096,14.19,73830.8,1.97,-10.19,-10.89,0,*72
1508562448.01,17097,14.19,73832.5,1.97,-10.19,-10.93,0,*78
1508562449.24,17098,14.19,73834.0,1.97,-10.19,-10.93,0,*77
1508562450.47,17099,14.25,73832.8,1.97,-10.19,-10.93,0,*76
1508562451.7,17100,14.19,73830.5,1.97,-10.19,-10.89,0,*7C
1508562452.92,17101,14.19,73830.0,1.97,-10.19,-10.93,0,*76
1508562454.15,17102,14.19,73828.5,1.97,-10.19,-10.93,0,*75
1508562455.38,17103,14.19,73826.5,1.97,-10.19,-10.93,0,*74
1508562456.6,17104,14.19,73828.3,1.97,-10.23,-10.93,0,*7A
1508562457.83,17105,14.25,73826.3,1.97,-10.19,-10.89,0,*79
1508562459.05,17106,14.19,73828.3,1.97,-10.09,-10.89,0,*7B
1508562460.27,17107,14.19,73830.8,1.97,-10.09,-10.93,0,*71
1508562461.46,17108,14.19,73834.8,1.99,-10.09,-10.93,0,*70
1508562462.69,17109,14.19,73834.3,1.97,-10.19,-10.89,0,*75
1508562463.9,17110,14.19,73836.0,1.97,-10.05,-10.89,0,*70
1508562465.12,17111,14.19,73832.3,1.97,-10.09,-10.93,0,*76
1508562466.34,17112,14.19,73832.5,1.97,-10.09,-10.89,0,*7E
1508562467.54,17113,14.25,73834.8,1.95,-10.15,-10.93,0,*7B
1508562468.74,17114,14.19,73832.3,1.95,-10.15,-10.85,0,*7B
1508562469.94,17115,14.19,73832.3,1.95,-10.15,-10.85,0,*7A
1508562471.15,17116,14.19,73832.8,1.95,-10.15,-10.93,0,*7E
1508562472.36,17117,14.19,73836.5,1.97,-10.09,-10.89,0,*7B
1508562473.56,17118,14.19,73836.3,1.95,-10.15,-10.85,0,*77
1508562474.78,17119,14.19,73836.0,1.97,-10.09,-10.89,0,*75
1508562475.99,17120,14.19,73836.3,1.97,-10.09,-10.93,0,*74
1508562477.21,17121,14.19,73836.0,1.97,-10.09,-10.89,0,*7E
1508562478.42,17122,14.19,73842.0,1.95,-10.15,-10.97,0,*7D
1508562479.65,17123,14.19,73842.5,1.93,-10.15,-10.93,0,*7E
1508562480.88,17124,14.25,73844.5,1.93,-10.15,-10.93,0,*79
1508562482.09,17125,14.19,73842.0,1.95,-10.15,-10.93,0,*7E
1508562483.31,17126,14.19,73846.3,1.93,-10.15,-10.85,0,*7C
1508562484.53,17127,14.19,73846.3,1.93,-10.09,-10.93,0,*77
1508562485.75,17128,14.19,73840.8,1.93,-10.01,-10.85,0,*77
1508562486.94,17129,14.19,73840.0,1.95,-10.01,-10.85,0,*70
1508562488.14,17130,14.19,73842.5,1.95,-10.01,-10.93,0,*7F
1508562489.36,17131,14.19,73836.0,1.93,-10.09,-10.85,0,*77
1508562490.59,17132,14.19,73838.8,1.95,-10.15,-10.79,0,*7C
1508562491.8,17133,14.19,73838.3,1.93,-10.01,-10.85,0,*7D
1508562493.03,17134,14.19,73836.8,1.95,-10.09,-10.79,0,*77
1508562494.24,17135,14.19,73838.3,1.93,-10.01,-10.85,0,*7B
1508562495.43,17136,14.19,73836.3,1.95,-9.97,-10.85,0,*49
1508562496.63,17137,14.19,73838.5,1.95,-10.01,-10.93,0,*78
1508562497.86,17138,14.19,73838.8,1.93,-10.15,-10.93,0,*74
1508562499.09,17139,14.19,73836.5,1.93,-10.15,-10.97,0,*71
1508562500.35,17140,14.19,73834.8,1.93,-10.15,-11.07,0,*77
1508562501.58,17141,14.19,73828.5,1.95,-10.15,-11.07,0,*70
1508562502.84,17142,14.19,73826.3,1.93,-10.15,-11.07,0,*75
1508562504.07,17143,14.19,73826.3,1.93,-10.15,-11.11,0,*73